AirNav   ProFlight Series 2 Aviation Headset
 
 1252 users online  

3MO1 Police Dept Helicopter Maint Facility Heliport
Kansas City, Missouri, USA

GOING TO KANSAS CITY?


FAA INFORMATION EFFECTIVE 16 JULY 2020

Location

FAA Identifier: 3MO1
Lat/Long: 39-02-45.0190N 094-29-50.8320W
39-02.750317N 094-29.847200W
39.0458386,-94.4974533
(estimated)
Elevation: 855 ft. / 261 m (estimated)
Variation: 05E (1985)
From city: HELIPORT 7 SE KANSAS CITY MUNI.
Time zone: UTC -5 (UTC -6 during Standard Time)
Zip code: 64129

Heliport Operations

Heliport use: Private use. Permission required prior to landing
Activation date: 05/1972
Control tower: no
ARTCC: KANSAS CITY CENTER
FSS: COLUMBIA FLIGHT SERVICE STATION
Attendance: CONTINUOUS
Wind indicator: yes
Segmented circle: no

Heliport Communications

WX ASOS at MKC (6 nm NW): PHONE 816-329-2843
WX ASOS at LXT (8 nm SE): 124.175 (816-347-9807)
WX ASOS at OJC (16 nm SW): 119.35 (913-780-6969)
WX ASOS at MCI (18 nm NW): PHONE 816-329-2808
WX AWOS-3 at GPH (19 nm NE): 120.275 (816-407-3399)

Nearby radio navigation aids

VOR radial/distance  VOR name  Freq  Var
ANXr253/17.4NAPOLEON VORTAC114.0007E
MCIr137/18.2KANSAS CITY VORTAC113.2505E

Heliport Services

Airframe service: MAJOR
Powerplant service: MINOR

Runway Information

Helipad H1

Dimensions: 25 x 25 ft. / 8 x 8 m
Surface: concrete
Latitude: 39-02.750333N
Longitude: 094-29.847167W
Elevation: 855.0 ft.
Traffic pattern: leftleft

Helipad H2

Dimensions: 25 x 25 ft. / 8 x 8 m
Surface: concrete
Traffic pattern: leftleft

Helipad H3

Dimensions: 25 x 25 ft. / 8 x 8 m
Surface: concrete
Traffic pattern: leftleft

Heliport Ownership and Management from official FAA records

Ownership: Publicly-owned
Owner: BOARD OF POLICE COMMISSIONERS
1125 LOCUST
KANSAS CITY, MO 64129
Phone 816-234-5000
Manager: CAPT. RON LEGG
4601 EASTERN
KANSAS CITY, MO 64129
Phone 816-929-2700

Heliport Operational Statistics

Aircraft based on the field: 3
Helicopters: 3
    

Additional Remarks

FOR CD CTC KANSAS CITY APCH AT 816-329-2710.

Instrument Procedures

There are no published instrument procedures at 3MO1.

Some nearby airports with instrument procedures:

KMKC - Charles B Wheeler Downtown Airport (6 nm NW)
KLXT - Lee's Summit Municipal Airport (8 nm SE)
3GV - East Kansas City Airport (13 nm E)
KOJC - Johnson County Executive Airport (16 nm SW)
KMCI - Kansas City International Airport (18 nm NW)
KGPH - Midwest National Air Center Airport (19 nm NE)
 
Loc | Ops | Rwys | IFR | FBO | Links
Com | Nav | Svcs | Stats | Notes
Area around 3MO1 (Police Dept Helicopter Maint Facility Heliport)
 
Road maps at: MapQuest Bing Google
 
Aerial photo
No photo
 
Sectional chart

 
Airport distance calculator
Flying to Police Dept Helicopter Maint Facility Heliport? Find the distance to fly.

From to 3MO1

Sunrise and sunset
Times for 12-Aug-2020
 Local
(UTC-5)
 Zulu
(UTC)
Morning civil twilight06:0211:02
Sunrise06:3011:30
Sunset20:1501:15
Evening civil twilight20:4401:44

Current date and time
Zulu (UTC)  12-Aug-2020 23:39:05
Local (UTC-5)  12-Aug-2020 18:39:05
 
METAR
KMKC 
6nm NW 
122254Z 11007KT 10SM CLR 32/21 A2994 RMK AO2 SLP131 T03170206
KLXT 
8nm SE 
122253Z AUTO 11006KT 10SM CLR 31/22 A2997 RMK AO2 SLP137 T03060217
KOJC 
16nm SW 
122253Z 14007KT 10SM CLR 29/22 A2996 RMK AO2 SLP133 T02940217
KMCI 
19nm NW 
122253Z 11010KT 10SM BKN150 30/23 A2996 RMK AO2 SLP133 T03000228
KGPH 
19nm NE 
122255Z AUTO 11003KT 10SM CLR 28/22 A2995 RMK AO2
TAF
KMKC 
6nm NW 
121720Z 1218/1318 18008KT P6SM BKN040 FM130100 11008KT P6SM SCT100 FM131600 13006KT P6SM SCT035
KMCI 
19nm NW 
121720Z 1218/1318 18008KT P6SM BKN040 FM130100 11008KT P6SM SCT100 FM131600 13006KT P6SM SCT035
NOTAMs
Click for the latest NOTAMs
NOTAMs are issued by the DoD/FAA and will open in a separate window not controlled by AirNav.

 

 
 

Would you like to see your business listed on this page?

 If your business provides an interesting product or service to pilots, flight crews, aircraft, or users of the Police Dept Helicopter Maint Facility Heliport, you should consider listing it here.  To start the listing process, click on the button below
 
Add a business
 

Other Pages about Police Dept Helicopter Maint Facility Heliport

Update a link
 
Copyright © AirNav, LLC. All rights reserved. Privacy Policy  Contact